Tracking 25686 objects as of 26-May-2022
HD Live streaming from Space Station
objects crossing your sky now

OPS 4682 DEB

Track OPS 4682 DEB now!
10-day predictions


NORAD ID: 14717
Int'l Code: 1965-027Q
Perigee: 1,256.6 km
Apogee: 1,308.5 km
Inclination: 90.3 °
Period: 111.1 minutes
Semi major axis: 7653 km
RCS: 0.0307 m2 (small)
Launch date: April 3, 1965
Source: United States (US)
Launch site: AIR FORCE WESTERN TEST RANGE (AFWTR)

Note: This is SATELLITE DEBRIS
aabbcc
Your satellite tracking list
Your tracking list is empty




NASA's NSSDC Master Catalog

Two Line Element Set (TLE):
1 14717U 65027Q   22145.45876663  .00000501  00000-0  17188-2 0  9992
2 14717  90.2837 315.7307 0033887  25.5627   1.6817 12.96598832923799
Source of the keplerian elements: AFSPC